Meridian, MS

8:32 AM CDT on October 17, 2019 (GMT -0500)
Key

Weather History for KMEI - August, 2019

Change the Weather History Date:

Saturday, August 17, 2019

  Actual Average Record
Temperature  
Mean Temperature 84 °F 80 °F  
Max Temperature 99 °F 92 °F 103 °F (1952)
Min Temperature 68 °F 69 °F 54 °F (2004)
Degree Days  
Heating Degree Days 0 0  
Month to date heating degree days 0 0  
Since 1 June heating degree days 0 0  
Since 1 July heating degree days 0 0  
Cooling Degree Days 19 15  
Month to date cooling degree days 332 269  
Year to date cooling degree days 1847 1416  
Since 1 June cooling degree days 1351 1133  
Growing Degree Days 34 (Base 50)    
Moisture  
Dew Point 68 °F    
Average Humidity 61    
Maximum Humidity 90    
Minimum Humidity 31    
Precipitation  
Precipitation 0.00 in 0.13 in 0.84 in (2001)
Month to date precipitation 3.18 2.35  
Year to date precipitation 41.76 37.32  
Sea Level Pressure  
Sea Level Pressure 29.95 in    
Wind  
Wind Speed 2 mph (WSW)    
Max Wind Speed 12 mph    
Max Gust Speed 14 mph    
Visibility 10 miles    
Events      
T = Trace of Precipitation, MM = Missing Value Source: NWS Daily Summary

Daily Weather History Graph

Daily Weather History Graph

Search for Another Location

Airport or City:

Astronomy

Aug. 17, 2019 Rise Set
Actual Time 6:20 AM CDT 7:37 PM CDT
Civil Twilight 5:54 AM CDT 8:03 PM CDT
Nautical Twilight 5:23 AM CDT 8:33 PM CDT
Astronomical Twilight 4:51 AM CDT 9:05 PM CDT
Moon 9:10 PM CDT 8:05 AM CDT
Length of Visible Light 14h 08m
Length of Day
13h 17m
Waning Gibbous, 96% of the Moon is Illuminated
Aug 17
Waning Gibbous
Aug 23
Last Quarter
Aug 30
New
Sep 5
First Quarter
Sep 13
Full

Hourly Weather History & Observations

Time (CDT) Temp. Heat Index Dew Point Humidity Pressure Visibility Wind Dir Wind Speed Gust Speed Precip Events Conditions
12:58 AM 71.1 °F - 66.9 °F 87% 29.95 in 10.0 mi Calm Calm - N/A   Clear
1:58 AM 71.1 °F - 66.9 °F 87% 29.94 in 10.0 mi South 5.8 mph - N/A   Clear
2:58 AM 70.0 °F - 66.0 °F 87% 29.94 in 10.0 mi Calm Calm - N/A   Clear
3:58 AM 69.1 °F - 64.9 °F 87% 29.93 in 10.0 mi Calm Calm - N/A   Clear
4:58 AM 68.0 °F - 64.0 °F 87% 29.92 in 10.0 mi Calm Calm - N/A   Clear
5:58 AM 69.1 °F - 64.9 °F 87% 29.93 in 10.0 mi Calm Calm - N/A   Clear
6:58 AM 69.1 °F - 64.9 °F 87% 29.96 in 10.0 mi Calm Calm - N/A   Clear
7:58 AM 75.0 °F - 69.1 °F 82% 29.99 in 10.0 mi Calm Calm - N/A   Clear
8:58 AM 82.9 °F 85.8 °F 68.0 °F 60% 30.00 in 10.0 mi NE 3.5 mph - N/A   Clear
9:58 AM 89.1 °F 92.1 °F 66.9 °F 48% 30.00 in 10.0 mi Calm Calm - N/A   Clear
10:58 AM 91.9 °F 94.1 °F 64.9 °F 41% 30.01 in 10.0 mi WSW 3.5 mph - N/A   Clear
11:58 AM 96.1 °F 99.9 °F 66.9 °F 38% 29.99 in 10.0 mi Calm Calm - N/A   Clear
12:58 PM 96.1 °F 98.8 °F 64.9 °F 36% 29.98 in 10.0 mi NNE 9.2 mph - N/A   Clear
1:58 PM 97.0 °F 98.3 °F 63.0 °F 32% 29.95 in 10.0 mi North 8.1 mph - N/A   Clear
2:58 PM 98.1 °F 99.6 °F 63.0 °F 31% 29.93 in 10.0 mi Calm Calm - N/A   Clear
3:58 PM 99.0 °F 101.7 °F 64.0 °F 32% 29.92 in 10.0 mi Calm Calm - N/A   Clear
4:58 PM 97.0 °F 99.9 °F 64.9 °F 35% 29.91 in 10.0 mi WSW 3.5 mph - N/A   Clear
5:58 PM 95.0 °F 99.5 °F 68.0 °F 41% 29.91 in 10.0 mi SW 3.5 mph - N/A   Clear
6:58 PM 91.0 °F 100.4 °F 73.9 °F 57% 29.91 in 10.0 mi Calm Calm - N/A   Partly Cloudy
7:58 PM 82.0 °F 88.6 °F 75.0 °F 79% 29.92 in 10.0 mi Calm Calm - N/A   Clear
8:58 PM 82.0 °F 87.9 °F 73.9 °F 76% 29.93 in 10.0 mi Calm Calm - N/A   Clear
9:58 PM 77.0 °F - 72.0 °F 84% 29.94 in 10.0 mi SSW 3.5 mph - N/A   Clear
10:58 PM 75.9 °F - 72.0 °F 87% 29.94 in 10.0 mi Calm Calm - N/A   Clear
11:58 PM 75.0 °F - 71.1 °F 87% 29.94 in 10.0 mi Calm Calm - N/A   Clear